Greybull, WY

9:57 AM MDT on July 24, 2017 (GMT -0600)
South Big Horn County

Weather History for KGEY - July, 2014

Change the Weather History Date:

Tuesday, July 22, 2014

  Actual Average Record
Temperature  
Mean Temperature 80 °F 75 °F  
Max Temperature 98 °F 92 °F 105 °F (2007)
Min Temperature 61 °F 58 °F 54 °F (2010)
Degree Days  
Heating Degree Days 0 0  
Month to date heating degree days 0 1  
Since 1 June heating degree days 56 71  
Since 1 July heating degree days 0 1  
Cooling Degree Days 15 10  
Month to date cooling degree days 245 188  
Year to date cooling degree days 336 314  
Since 1 June cooling degree days 294 294  
Growing Degree Days 30 (Base 50)    
Moisture  
Dew Point 45 °F    
Average Humidity 40    
Maximum Humidity 67    
Minimum Humidity 12    
Precipitation  
Precipitation T in 0.02 in 0.12 in (2004)
Month to date precipitation 0.21 0.52  
Year to date precipitation 2.85 4.89  
Sea Level Pressure  
Sea Level Pressure 30.01 in    
Wind  
Wind Speed 6 mph (SE)    
Max Wind Speed 25 mph    
Max Gust Speed 32 mph    
Visibility 10 miles    
Events Rain    
T = Trace of Precipitation, MM = Missing Value Source: NWS Daily Summary

Daily Weather History Graph

Daily Weather History Graph

Search for Another Location

Airport or City:

Trip Planner

Search our weather history database for the weather conditions in past years. The results will help you decide how hot, cold, wet, or windy it might be!

Date:

Astronomy

Jul. 22, 2014 Rise Set
Actual Time 5:48 AM MDT 8:48 PM MDT
Civil Twilight 5:13 AM MDT 9:23 PM MDT
Nautical Twilight 4:29 AM MDT 10:07 PM MDT
Astronomical Twilight 3:36 AM MDT 10:59 PM MDT
Moon 2:25 AM MDT (7/22) 5:27 PM MDT (7/22)
Length of Visible Light 16h 09m
Length of Day
15h 00m
Waning Crescent, 16% of the Moon is Illuminated
Jul 22
Waning Crescent
Jul 26
New
Aug 3
First Quarter
Aug 10
Full
Aug 17
Last Quarter

Hourly Weather History & Observations

Time (MDT) Temp. Dew Point Humidity Pressure Visibility Wind Dir Wind Speed Gust Speed Precip Events Conditions
12:53 AM 72.0 °F 46.9 °F 41% 29.98 in 10.0 mi SSW 8.1 mph - N/A   Clear
1:53 AM 66.0 °F 48.9 °F 54% 30.02 in 10.0 mi SW 3.5 mph - N/A   Clear
2:53 AM 64.9 °F 51.1 °F 61% 30.04 in 10.0 mi Calm Calm - N/A   Clear
3:53 AM 64.0 °F 51.1 °F 63% 30.05 in 10.0 mi SE 4.6 mph - N/A   Clear
4:53 AM 63.0 °F 51.1 °F 65% 30.04 in 10.0 mi Calm Calm - N/A   Clear
5:53 AM 63.0 °F 51.1 °F 65% 30.05 in 10.0 mi Calm Calm - N/A   Clear
6:53 AM 63.0 °F 53.1 °F 70% 30.06 in 10.0 mi NNE 5.8 mph - 0.00 in Rain Light Rain
8:53 AM 72.0 °F 54.0 °F 53% 30.08 in 10.0 mi ESE 6.9 mph - N/A   Clear
9:53 AM 78.1 °F 51.1 °F 39% 30.07 in 10.0 mi SE 4.6 mph - N/A   Clear
10:53 AM 84.9 °F 48.0 °F 28% 30.05 in 10.0 mi SE 10.4 mph - N/A   Clear
11:53 AM 89.1 °F 45.0 °F 22% 30.04 in 10.0 mi SSE 9.2 mph - N/A   Clear
12:53 PM 91.0 °F 43.0 °F 19% 30.02 in 10.0 mi Variable 6.9 mph 19.6 mph N/A   Clear
1:53 PM 93.9 °F 37.0 °F 14% 30.03 in 10.0 mi SSE 9.2 mph - N/A   Clear
2:53 PM 96.1 °F 35.1 °F 12% 30.01 in 10.0 mi SE 8.1 mph - N/A   Clear
3:53 PM 97.0 °F 36.0 °F 12% 29.99 in 10.0 mi ESE 8.1 mph - N/A   Clear
4:53 PM 97.0 °F 37.0 °F 12% 29.97 in 10.0 mi East 4.6 mph - N/A   Clear
5:53 PM 96.1 °F 36.0 °F 12% 29.96 in 10.0 mi Variable 3.5 mph - N/A   Clear
6:53 PM 96.1 °F 37.0 °F 13% 29.96 in 10.0 mi SSE 3.5 mph - N/A   Clear
7:53 PM 93.9 °F 36.0 °F 13% 29.95 in 10.0 mi South 3.5 mph - N/A   Clear
8:53 PM 90.0 °F 39.9 °F 17% 29.96 in 10.0 mi NNW 10.4 mph - N/A   Clear
9:53 PM 84.0 °F 46.0 °F 26% 29.99 in 10.0 mi North 4.6 mph - N/A   Clear
10:53 PM 82.0 °F 46.9 °F 29% 30.00 in 10.0 mi NW 4.6 mph - N/A   Clear
11:53 PM 73.9 °F 50.0 °F 43% 30.02 in 10.0 mi WNW 15.0 mph - N/A   Clear